Powrót do katalogu

ONEWEB-0571

AktywnyŁącznośćPO
NORAD 55150·PAYLOAD·🇬🇧 United Kingdom

Wystrzelony Jan 10, 2023 z Cape Canaveral Space Force Station

Loading…

Następne Przeloty (najbliższe 24 godziny)

TLE

ŚwieżeSource: CelesTrak SupGP

Epoka: Sep 14, 2026, 08:43 UTC

1 55150C 23004L   26257.36338380 -.00003597  00000+0 -91363-2 0  2577
2 55150  87.9158 317.7461 0000861  72.3390 339.4377 13.18687966    16

Śledź ONEWEB-0571 w czasie rzeczywistym z AllMySat

Download on the App Store